Location: ??????
(55.2000°N, 38.3000°E)
Time: 00:29:38
(UTC+00:00)

H-2A R/B - Pass Details

Date: 15 November 2025
Orbit: 728 x 830 km, 98.3° (Epoch: 12 December)

Event Time Altitude Azimuth Distance (km) Brightness Sun altitude
Rises 01:12:18 0° 15° (NNE) 3,201 5.6 -32.0°
Reaches altitude 10° 01:14:36 10° 14° (NNE) 2,262 4.7 -31.6°
Enters shadow 01:16:36 25° 13° (NNE) 1,483 3.6 -31.4°
